Location: Newton_East
(35.6670°N, 81.2000°W)
Time: 12:27:16
(UTC-05:00)

ISS - Visible Passes

Search period start: 24 January 2017 00:00
Search period end: 03 February 2017 00:00
Orbit: 399 x 409 km, 51.6° (Epoch: 25 January)

Date Brightness Start Highest point End Pass type
(mag) Time Alt. Az. Time Alt. Az. Time Alt. Az.
25 Jan -1.2 18:58:36 10° SSE 19:00:01 14° SE 19:00:01 14° SE visible
26 Jan -1.8 19:41:09 10° SW 19:43:08 34° SW 19:43:08 34° SW visible
27 Jan -2.7 18:49:08 10° SSW 18:52:13 39° SE 18:53:29 26° E visible
28 Jan -2.0 19:33:21 10° WSW 19:36:21 33° NW 19:36:26 33° NNW visible
29 Jan -3.1 18:40:45 10° SW 18:44:01 69° NW 18:46:34 15° NE visible
30 Jan -1.0 19:26:10 10° WNW 19:28:24 17° NNW 19:29:19 15° N visible
31 Jan -1.6 18:33:02 10° W 18:35:54 27° NW 18:38:46 10° NNE visible
02 Feb -0.8 18:25:59 10° WNW 18:27:55 15° NNW 18:29:50 10° N visible
